星链-1112 (STARLINK-1112 )

导读 | 豆包AI

STARLINK-1112是美国太空探索技术公司SpaceX星链(Starlink)星座的卫星,于2020年1月7日发射升空,属于星链早期部署批次卫星。星链星座旨在为全球提供覆盖广泛的低轨卫星互联网服务,该卫星长期在近地轨道运行,承担网络信号中继传输任务,助力星链全球通信网络的搭建与服务拓展。

Basic Information
目录编号:
44925
目录名称:
STARLINK-1112
国际标识:
2020-001M
轨道中心:
EARTH
卫星名称:
星链-1112
卫星全名:
星链-1112 (STARLINK-1112 )
卫星状态:
已陨落 最后检测时间 2026-03-13
发射日期:
2020-01-07 UTC
国别 :
美国 (US)
星等 :
--
Orbit Information
数据来源 国际轨道数据
星历时间: 2026-03-13T04:30:03+0800
轨道信息已过期73天
半长轴: 6539.136km
偏心率: 0.0002648
轨道倾角: 53.021°
近地点辐角 266.813°
升交点赤经 223.712°
平近点角 93.262°
近地点: 159.267km
远地点: 162.731km
周期: 87.708分钟
每日圈数: 16.418077
Detailed Information
固有亮度:
5
最大亮度:
2.5
卫星平台:
Starlink V1.0
覆盖范围:
全球
运营商:
太空探索技术公司
运营商所在国:
美国
制造商(研发单位):
太空探索技术公司
制造商所在国:
美国
使用方式:
暂无
Satellite Introduction
星链(Starlink)计划是由太空探索技术公司(SpaceX)提出的一个巨型低轨卫星互联网星座项目,计划在2019年至2024年间在太空搭建由约1.2万颗卫星组成的“星链”网络,其中1584颗将部署在地球上空550千米处的近地轨道,并从2020年开始工作。该卫星仍在工作。